This demonstration page uses our WeatherBlox Daily Observations layout. Learn more.

Hourly Observations for October 22, 2018

Temp ( °F °C ) Dew Point ( °F °C ) Humidity (%) Winds ( mph kmh ) Pressure ( in mb ) Visibility ( mi km ) Precip ( " mm )
12:15 am 00:15 Clear 52 10.9 41 5 67 67 S 8 13 30 1016 10 16.09344 0 0
12:35 am 00:35 Clear 51 10.8 41 4.8 67 67 S 7 11 30 1016 10 16.09344 0 0
12:55 am 00:55 Clear 48 8.8 39 3.9 72 72 SSW 6 9 30.03 1017 10 16.09344 0 0
1:15 am 01:15 Clear 47 8.6 41 5 78 78 NNW 3 6 30.06 1018 10 16.09344 0 0
1:35 am 01:35 Clear 46 7.6 40 4.4 80 80 Calm 30.06 1018 10 16.09344 0 0
1:55 am 01:55 Clear 43 5.9 39 4.1 88 88 NNE 3 6 30.09 1019 10 16.09344 0 0
2:15 am 02:15 Clear 44 6.7 39 3.8 82 82 Calm 30.06 1018 10 16.09344 0 0
2:35 am 02:35 Clear 44 6.5 39 4 84 84 ENE 3 6 30.06 1018 10 16.09344 0 0
2:55 am 02:55 Clear 41 5.1 38 3.6 90 90 Calm 30.09 1019 10 16.09344 0 0
3:15 am 03:15 Clear 43 6 39 3.7 85 85 Calm 30.09 1019 10 16.09344 0 0
3:35 am 03:35 Clear 41 5.1 38 3.5 90 90 N 5 7 30.09 1019 10 16.09344 0 0
3:55 am 03:55 Clear 42 5.8 40 4.2 90 90 N 7 11 30.09 1019 10 16.09344 0 0
4:15 am 04:15 Clear 40 4.6 38 3.4 92 92 N 6 9 30.09 1019 10 16.09344 0 0
4:35 am 04:35 Clear 40 4.4 38 3.3 93 93 N 8 13 30.09 1019 10 16.09344 0 0
4:55 am 04:55 Clear 40 4.3 38 3.5 95 95 N 8 13 30.09 1019 10 16.09344 0 0
5:15 am 05:15 Clear 39 4.1 38 3.5 96 96 N 6 9 30.09 1019 10 16.09344 0 0
5:35 am 05:35 Clear 40 4.3 38 3.4 94 94 N 6 9 30.12 1020 10 16.09344 0 0
5:55 am 05:55 Clear 39 4 38 3.2 95 95 N 7 11 30.12 1020 10 16.09344 0 0
6:15 am 06:15 Clear 39 3.8 37 3 95 95 N 7 11 30.12 1020 10 16.09344 0 0
6:35 am 06:35 Clear 38 3.6 37 3 96 96 N 6 9 30.12 1020 10 16.09344 0 0
6:55 am 06:55 Clear 39 4 38 3.3 95 95 N 7 11 30.12 1020 10 16.09344 0 0
7:15 am 07:15 Clear 39 4.1 38 3.2 94 94 N 8 13 30.12 1020 10 16.09344 0 0
7:35 am 07:35 Clear 38 3.6 37 3 96 96 N 7 11 30.15 1021 10 16.09344 0 0
7:55 am 07:55 Clear 39 4.1 38 3.2 94 94 N 7 11 30.15 1021 10 16.09344 0 0
8:15 am 08:15 Sunny 39 4 37 3 93 93 N 6 9 30.15 1021 10 16.09344 0 0
8:35 am 08:35 Sunny 40 4.6 38 3.5 93 93 N 7 11 30.15 1021 10 16.09344 0 0
8:55 am 08:55 Sunny 42 5.8 39 4 88 88 N 9 15 30.18 1022 10 16.09344 0 0
9:15 am 09:15 Sunny 44 6.6 40 4.5 87 87 NNE 8 13 30.18 1022 10 16.09344 0 0
9:35 am 09:35 Sunny 46 7.9 41 5.2 83 83 NNE 9 15 30.15 1021 10 16.09344 0 0
9:55 am 09:55 Sunny 48 9 42 5.5 79 79 NNE 10 17 30.15 1021 10 16.09344 0 0
10:15 am 10:15 Sunny 51 10.4 42 5.3 71 71 NE 12 19 30.12 1020 10 16.09344 0 0
10:35 am 10:35 Sunny 52 11.2 41 5 66 66 NE 12 19 30.12 1020 10 16.09344 0 0
10:55 am 10:55 Sunny 54 12.1 41 5 62 62 NE 13 20 30.12 1020 10 16.09344 0 0
11:15 am 11:15 Sunny 55 12.9 41 5.2 60 60 ENE 14 22 30.12 1020 10 16.09344 0 0
11:35 am 11:35 Sunny 57 14 41 5.1 55 55 ENE 13 20 30.09 1019 10 16.09344 0 0
11:55 am 11:55 Sunny 59 15 41 4.9 51 51 ENE 16 26 30.09 1019 10 16.09344 0 0
12:15 pm 12:15 Sunny 61 16 41 5 48 48 ENE 16 26 30.09 1019 10 16.09344 0 0
12:35 pm 12:35 Sunny 62 16.4 41 4.8 46 46 ENE 13 20 30.09 1019 10 16.09344 0 0
12:55 pm 12:55 Sunny 62 16.6 41 4.9 46 46 E 13 20 30.09 1019 10 16.09344 0 0
1:15 pm 13:15 Sunny 63 17.3 41 5.1 45 45 ENE 13 20 30.06 1018 10 16.09344 0 0
1:35 pm 13:35 Sunny 65 18.1 41 4.8 42 42 ENE 13 20 30.06 1018 10 16.09344 0 0
1:55 pm 13:55 Sunny 65 18.4 40 4.6 40 40 ENE 12 19 30.06 1018 10 16.09344 0 0
2:15 pm 14:15 Sunny 65 18.6 40 4.3 39 39 E 12 19 30.06 1018 10 16.09344 0 0
2:35 pm 14:35 Sunny 66 18.8 40 4.2 38 38 ENE 10 17 30.06 1018 10 16.09344 0 0
2:55 pm 14:55 Sunny 67 19.3 40 4.2 37 37 NE 12 19 30.06 1018 10 16.09344 0 0
3:15 pm 15:15 Sunny 67 19.4 39 3.7 36 36 ENE 12 19 30.06 1018 10 16.09344 0 0
3:35 pm 15:35 Sunny 67 19.6 38 3.5 35 35 NE 15 24 30.06 1018 10 16.09344 0 0
3:55 pm 15:55 Sunny 67 19.3 37 2.9 34 34 ENE 14 22 30.06 1018 10 16.09344 0 0
4:15 pm 16:15 Sunny 66 19.1 37 2.7 34 34 ENE 10 17 30.06 1018 10 16.09344 0 0
4:35 pm 16:35 Sunny 67 19.3 37 2.6 33 33 ENE 14 22 30.06 1018 10 16.09344 0 0
4:55 pm 16:55 Sunny 66 19.1 37 2.7 34 34 ENE 13 20 30.06 1018 10 16.09344 0 0
5:15 pm 17:15 Sunny 66 19 36 2.3 33 33 ENE 13 20 30.06 1018 10 16.09344 0 0
5:35 pm 17:35 Sunny 65 18.5 36 2.1 34 34 ENE 12 19 30.06 1018 10 16.09344 0 0
5:55 pm 17:55 Sunny 64 17.9 35 1.7 34 34 ENE 10 17 30.09 1019 10 16.09344 0 0
6:15 pm 18:15 Sunny 62 16.7 35 1.9 37 37 NE 8 13 30.12 1020 10 16.09344 0 0
6:35 pm 18:35 Sunny 59 14.9 34 1 39 39 ENE 8 13 30.12 1020 10 16.09344 0 0
6:55 pm 18:55 Clear 55 12.6 33 0.5 44 44 NE 7 11 30.15 1021 7 11.265408 0 0
7:15 pm 19:15 Clear 53 11.5 33 0.5 47 47 NE 8 13 30.15 1021 10 16.09344 0 0
7:35 pm 19:35 Clear 53 11.4 33 0.4 47 47 NE 8 13 30.18 1022 10 16.09344 0 0
7:55 pm 19:55 Clear 49 9.6 33 0.4 53 53 NE 8 13 30.21 1023 7 11.265408 0 0
8:15 pm 20:15 Clear 51 10.4 32 0 49 49 ENE 8 13 30.21 1023 10 16.09344 0 0
8:35 pm 20:35 Clear 49 9.7 32 -0.1 51 51 NE 7 11 30.21 1023 10 16.09344 0 0
8:55 pm 20:55 Clear 48 8.9 32 -0.2 53 53 NE 6 9 30.21 1023 10 16.09344 0 0
9:15 pm 21:15 Clear 47 8.4 31 -0.3 55 55 NE 6 9 30.24 1024 10 16.09344 0 0
9:35 pm 21:35 Clear 46 7.5 32 -0.2 58 58 NE 7 11 30.27 1025 10 16.09344 0 0
9:55 pm 21:55 Clear 46 7.9 31 -0.5 56 56 ENE 8 13 30.27 1025 10 16.09344 0 0
10:15 pm 22:15 Clear 45 7.3 31 -0.5 58 58 NE 8 13 30.27 1025 10 16.09344 0 0
10:35 pm 22:35 Clear 45 7.1 32 -0.2 60 60 NE 7 11 30.27 1025 10 16.09344 0 0
10:55 pm 22:55 Clear 44 6.5 31 -0.5 61 61 ENE 8 13 30.27 1025 10 16.09344 0 0
11:15 pm 23:15 Clear 44 6.5 31 -0.5 61 61 ENE 7 11 30.27 1025 10 16.09344 0 0
11:35 pm 23:35 Clear 43 6.1 31 -0.7 62 62 NE 7 11 30.27 1025 10 16.09344 0 0
11:55 pm 23:55 Clear 42 5.5 31 -0.8 64 64 NE 7 11 30.3 1026 10 16.09344 0 0

Powered by AerisWeather